DMSP 5D-2 F11 DEB, 28342

Orbit data source: Space-Track

DMSP 5D-2 F11 DEB, 28342 is space debris in SSO originally from a launch on Thu, 28 Nov 1991 UTC launched from the Air Force Western Test Range (AFWTR). Debris objects in space refer to the collection of defunct objects orbiting the Earth. Examples of debris include non-operational satellites, rocket bodies, and fragments generated from explosions, collisions, or faulty payload assembly.

Loading next visibility...
Identifier
28342, 1991-082BF
Orbit
SSO
Country
Flag of USUS
Related business
Manufacturer
Unknown
Mission
Spacecraft
Bus & Motor
Unknown
Mass
Unknown
Launch date (UTC)
1991-11-28 (34 years ago)
Launch vehicle
Unknown
Launch site
Air Force Western Test Range (AFWTR)
Object type
Payload
Rocket body
Debris
Shape & HBR
Unknown shape, 0.1 m
Radar Cross Section
Small (<0.1 m²)

Expand to show TLE details & history
Last TLE update: 10 hours ago

TLE from 10 hours ago
0 DMSP 5D-2 F11 DEB
1 28342U 91082BF  26121.14036024  .00005242  00000-0  16831-2 0  9995
2 28342  98.9595 190.3568 0064392 241.7955 117.6718 14.38679713132157
Epoch: 2026-05-01T03:22Z
TLE epoch observation values (Epoch: 2026-05-01T03:22:07.124Z)
Latitude
-0.0001°
Longitude
-79.24976°
Altitude
787.386 km
Speed
7.449 km/s
True Right ascension
12h 41m 25s
True Declination
0° 00' 00"
Sunlit
Object was in full shadow at epoch
Visualization orbit readout
Latitude
Unknown
Longitude
Unknown
Altitude
Unknown
Speed
Unknown
Apparent Right ascension
Unknown
Apparent Declination
Unknown
Sunlit
N/A
Visualization observer readout
Local Sidereal Time
20:52:11
Azimuth
Unknown
Elevation
Unknown
Doppler factor
Unknown
Orbital elements
Apogee altitude
805.974 km
Perigee altitude
714.046 km
Semi-major axis
7,138.147 km
Eccentricity
0.00644
Inclination
98.9595°
RAAN
190.3568°
Arg. of periapsis
241.7955°
True anomaly
118.32283°
Mean anomaly
117.6718°
Eccentric anomaly
117.99756°
Mean motion
3.59886 °/min
Orbital period
100.03 mins
BSTAR
0.0016831
Loading maneuver chart data...
Computing Atmospheric mass density...
Loading historical data...
Loading historical data...
Loading historical data...
Loading historical data...
Loading historical data...
Loading historical data...
Loading historical data...

Documentation

Showing up to 5 results
|